#timestamp,LO_Frequency,Hit 
1499947215.8,286047011.8,N
1499947235.6,286047009.3,N
1499947255.4,286047009.8,N
1499947275.3,286047010.8,N
1499947295.1,286047010.3,N
1499947315.8,286047008.4,N
1499947335.7,286047010.7,N
1499947355.5,286047007.7,N
1499947375.4,286047010.2,N
1499947395.2,286047010.6,N
1499947415.0,286047012.2,N
1499947415.9,286047012.2,N
1499947435.8,286047011.4,N
1499947455.6,286047012.1,N
1499947475.5,286047009.6,N
1499947495.3,286047008.1,N
1499947515.1,286047010.8,N
1499947535.9,286047008.8,N
1499947555.7,286047008.6,N
1499947575.6,286047006.6,N
1499947595.4,286047006.9,N
1499947615.2,286047004.9,N
1499947635.1,286047007.2,N
1499947636.0,286047007.2,N
1499947655.8,286047007.6,N
1499947675.6,286047006.7,N
1499947695.5,286047006.4,N
1499947715.3,286047008.9,N
1499947735.2,286047006.1,N
1499947755.9,286047006.1,N
1499947775.7,286047010.7,N
1499947795.6,286047007.9,N
1499947815.4,286047010.6,N
1499947835.3,286047010.3,N
1499947855.1,286047012.1,N
1499947856.0,286047012.1,N
1499947875.8,286047014.0,N
1499947895.7,286047009.7,N
1499947915.5,286047009.5,N
1499947935.4,286047012.2,N
1499947955.2,286047009.5,N
1499947975.0,286047009.6,N
1499947975.9,286047009.6,N
1499947995.8,286047011.9,N
1499948015.6,286047012.4,N
1499948035.4,286047012.4,N
1499948055.3,286047011.6,N
1499948075.1,286047011.2,N
1499948095.9,286047013.5,N
1499948115.7,286047011.1,N
1499948135.5,286047011.5,N
1499948155.4,286047011.4,N
1499948175.2,286047011.7,N
1499948195.1,286047009.6,N
1499948196.0,286047009.6,N
1499948215.8,286047009.5,N
1499948235.6,286047010.6,N
1499948255.5,286047010.8,N
1499948275.3,286047008.8,N
1499948295.2,286047006.9,N
1499948315.9,286047005.2,N
1499948335.7,286047006.8,N
1499948355.6,286047005.4,N
1499948375.4,286047004.5,N
1499948395.2,286047004.8,N
1499948415.1,286047004.9,N
1499948416.0,286047004.9,N
1499948435.8,286047007.1,N
1499948455.7,286047007.6,N
1499948475.5,286047005.4,N
1499948495.3,286047005.7,N
1499948515.2,286047007.1,N
1499948535.0,286047011.9,N
1499948535.9,286047006.3,N
1499948555.8,286047005.8,N
1499948575.6,286047005.0,N
1499948595.4,286047006.6,N
1499948615.3,286047005.7,N
1499948635.1,286047003.6,N
1499948655.8,286047004.5,N
1499948675.7,286047007.1,N
1499948695.5,286047005.0,N
1499948715.4,286047007.2,N
1499948735.2,286047006.4,N
1499948755.0,286047006.4,N
1499948755.9,286047006.4,N
1499948775.8,286047007.3,N
1499948795.6,286047004.7,N
1499948815.4,286047003.6,N
1499948835.3,286047003.1,N
1499948855.1,286047006.8,N
1499948875.9,286047007.3,N
1499948895.7,286047008.9,N
1499948915.5,286047007.9,N
1499948935.4,286047009.2,N
1499948955.2,286047007.8,N
1499948975.1,286047010.7,N
1499948976.0,286047010.7,N
1499948995.8,286047007.8,N
1499949015.6,286047010.7,N
1499949035.5,286047009.9,N
1499949055.3,286047009.8,N
1499949075.1,286047009.7,N
1499949095.9,286047012.1,N
1499949115.7,286047011.5,N
1499949135.6,286047009.5,N
1499949155.4,286047010.8,N
1499949175.2,286047010.4,N
1499949195.1,286047010.2,N
1499949196.0,286047010.2,N
1499949215.8,286047006.3,N
1499949235.7,286047007.2,N
1499949255.5,286047009.1,N
1499949275.3,286047006.2,N
1499949295.2,286047006.7,N
1499949315.0,286047005.7,N
1499949315.9,286047005.7,N
1499949335.8,286047003.3,N
1499949355.6,286047006.0,N
1499949375.4,286047006.0,N
1499949395.3,286047005.9,N
1499949415.1,286047004.7,N
1499949435.8,286047003.2,N
1499949455.7,286047001.7,N
1499949475.5,286047005.9,N
1499949495.4,286047004.3,N
1499949515.2,286047002.2,N
1499949535.0,286047000.2,N
1499949535.9,286047000.2,N
1499949555.8,286047002.3,N
1499949575.6,286047000.1,N
1499949595.4,286047000.4,N
1499949615.3,286047000.9,N
1499949635.1,286047000.3,N
1499949655.9,286047002.3,N
1499949675.7,286047001.2,N
1499949695.5,286047001.2,N
1499949715.4,286046998.5,N
1499949735.2,286046998.4,N
1499949755.0,286046999.0,N
1499949755.9,286046999.0,N
1499949775.8,286046999.5,N
1499949795.6,286046997.4,N
1499949815.5,286046997.2,N
1499949835.3,286046996.6,N
1499949855.1,286046999.5,N
1499949875.9,286046998.3,N
1499949895.7,286046998.2,N
1499949915.5,286046998.4,N
1499949935.4,286046999.3,N
1499949955.2,286046998.6,N
1499949975.1,286047000.1,N
1499949976.0,286047000.1,N
1499949995.8,286047000.6,N
1499950015.6,286047000.7,N
1499950035.5,286047001.0,N
1499950055.3,286047001.1,N
1499950075.2,286047001.1,N
1499950095.9,286046999.1,N
1499950115.7,286046997.9,N
1499950135.6,286046995.0,N
1499950155.4,286046995.7,N
1499950175.3,286046994.9,N
1499950195.1,286046997.1,N
1499950196.0,286046997.1,N
1499950215.8,286046998.5,N
1499950235.7,286046997.7,N
1499950255.5,286046996.9,N
1499950275.3,286046996.5,N
1499950295.2,286046999.6,N
1499950315.0,286046998.6,N
1499950315.9,286046998.6,N
1499950335.8,286046997.7,N
1499950355.6,286046997.7,N
1499950375.4,286046997.8,N
1499950395.3,286046997.5,N
1499950415.1,286046997.7,N
1499950435.9,286046997.2,N
1499950455.7,286046997.5,N
1499950475.5,286046997.9,N
1499950495.4,286046994.2,N
1499950515.2,286046995.9,N
1499950535.1,286046996.6,N
1499950536.0,286046996.6,N
1499950555.8,286047001.1,N
1499950575.6,286047000.5,N
1499950595.5,286047000.3,N
1499950615.3,286047000.3,N
1499950635.2,286047001.2,N
1499950655.9,286047001.5,N
1499950675.7,286047001.7,N
1499950695.6,286047002.3,N
1499950715.4,286047001.3,N
1499950735.2,286047000.6,N
1499950755.1,286047001.7,N
1499950756.0,286047001.7,N
1499950775.8,286047002.5,N
1499950795.7,286047004.2,N
